Regional Weather Roundup
Issued by NWS

Home | Current Version | Previous Version | Text Only | Print | Product List | Glossary Off
Versions: 1 2 3 4 5 6 7 8 9 10 11 12 13 14 15 16 17 18 19 20 21 22 23 24 25 26 27 28 29 30 31 32 33 34 35 36 37 38 39 40 41 42 43 44 45 46 47 48 49 50

000
ASUS43 KLMK 251202
RWRKY
KENTUCKY REGIONAL WEATHER ROUNDUP
NATIONAL WEATHER SERVICE LOUISVILLE KY
800 AM EDT TUE APR 25 2017

NOTE "FAIR" INDICATES FEW OR NO CLOUDS BELOW 12,000 FEET
WITH NO SIGNIFICANT WEATHER AND/OR OBSTRUCTIONS TO VISIBILITY.

KYZ001>023-026-027-061>063-070>075-251300-
WESTERN AND SOUTH CENTRAL KENTUCKY

CITY           SKY/WX    TMP DP  RH WIND       PRES   REMARKS
PADUCAH        CLEAR     57  53  86 CALM      29.74R
HENDERSON      SUNNY     55  53  93 E3        29.77R
OWENSBORO      SUNNY     57  54  89 MISG      29.78R
HOPKINSVILLE   FOG       51  51 100 E5        29.77S VSB 1/4
BOWLING GREEN  SUNNY     55  54  96 CALM      29.79R
GLASGOW        NOT AVBL
$$

KYZ024-025-028>034-038-045-046-053-251300-
NORTH CENTRAL KENTUCKY

CITY           SKY/WX    TMP DP  RH WIND       PRES   REMARKS
LOUISVILLE/SDF MOSUNNY   58  54  86 CALM      29.79R
LOUISVILLE/LOU SUNNY     56  54  93 CALM      29.80R
FORT KNOX      MOSUNNY   52  52  99 CALM      29.77R
$$

KYZ035>037-039>044-047>052-055>060-089>105-251300-
NORTHEAST KENTUCKY

CITY           SKY/WX    TMP DP  RH WIND       PRES   REMARKS
LEXINGTON      PTSUNNY   55  51  86 E5        29.80R
COVINGTON      MOSUNNY   55  51  86 E7        29.81R
FRANKFORT      SUNNY     55  51  86 NE5       29.79R
$$

KYZ054-064>069-076>088-106>120-251300-
SOUTHEAST KENTUCKY

CITY           SKY/WX    TMP DP  RH WIND       PRES   REMARKS
JACKSON        CLOUDY    53  52  96 VRB3      29.79R
LONDON         CLOUDY    52  50  93 N5        29.79R FOG
SOMERSET       NOT AVBL
MIDDLESBORO    CLOUDY    53  53 100 CALM      29.79R
MONTICELLO     CLOUDY    53  52  96 MISG      29.81R
$$





USA.gov is the U.S. government's official web portal to all federal, state and local government web resources and services.